TimeCST,TemperatureF,Dew PointF,Humidity,Sea Level PressureIn,VisibilityMPH,Wind Direction,Wind SpeedMPH,Gust SpeedMPH,PrecipitationIn,Events,Conditions,WindDirDegrees,DateUTC
12:53 AM,21.9,12.0,66,30.47,10.0,North,10.4,-,N/A,,Clear,10,2013-01-24 06:53:00
1:53 AM,19.9,10.9,68,30.49,10.0,North,10.4,-,N/A,,Clear,10,2013-01-24 07:53:00
2:53 AM,19.0,9.0,65,30.49,10.0,NNE,13.8,-,N/A,,Clear,20,2013-01-24 08:53:00
3:53 AM,17.1,3.9,56,30.49,10.0,NE,17.3,-,N/A,,Clear,40,2013-01-24 09:53:00
4:53 AM,15.1,3.0,59,30.50,10.0,NNE,8.1,-,N/A,,Clear,30,2013-01-24 10:53:00
5:53 AM,14.0,1.9,59,30.49,10.0,NE,11.5,-,N/A,,Clear,50,2013-01-24 11:53:00
6:53 AM,12.9,3.0,65,30.52,10.0,NNE,10.4,-,N/A,,Clear,30,2013-01-24 12:53:00
7:53 AM,12.0,1.0,61,30.52,10.0,ENE,11.5,-,N/A,,Clear,60,2013-01-24 13:53:00
8:53 AM,12.9,1.0,59,30.52,10.0,ENE,13.8,-,N/A,,Clear,70,2013-01-24 14:53:00
9:53 AM,16.0,1.0,52,30.53,10.0,ENE,13.8,-,N/A,,Clear,70,2013-01-24 15:53:00
10:53 AM,18.0,-0.0,45,30.51,10.0,East,12.7,-,N/A,,Clear,90,2013-01-24 16:53:00
11:53 AM,21.0,-0.0,40,30.48,10.0,East,12.7,-,N/A,,Clear,80,2013-01-24 17:53:00
12:53 PM,23.0,1.0,39,30.41,10.0,East,12.7,-,N/A,,Clear,80,2013-01-24 18:53:00
1:53 PM,26.1,1.9,35,30.37,10.0,East,9.2,-,N/A,,Clear,90,2013-01-24 19:53:00
2:53 PM,26.1,1.9,35,30.33,10.0,East,9.2,-,N/A,,Scattered Clouds,80,2013-01-24 20:53:00
3:53 PM,27.0,1.9,34,30.31,10.0,East,6.9,-,N/A,,Overcast,90,2013-01-24 21:53:00
4:53 PM,28.0,3.9,36,30.28,10.0,ENE,10.4,-,N/A,,Overcast,70,2013-01-24 22:53:00
5:46 PM,27.0,3.9,37,30.21,10.0,East,11.5,-,N/A,,Overcast,80,2013-01-24 23:46:00
5:53 PM,27.0,3.9,37,30.25,10.0,East,12.7,-,N/A,,Overcast,90,2013-01-24 23:53:00
6:53 PM,27.0,5.0,39,30.26,10.0,ESE,10.4,-,N/A,,Overcast,110,2013-01-25 00:53:00
7:53 PM,27.0,6.1,41,30.27,10.0,ESE,9.2,-,N/A,,Overcast,120,2013-01-25 01:53:00
8:53 PM,27.0,7.0,43,30.24,10.0,ESE,9.2,-,N/A,,Overcast,110,2013-01-25 02:53:00
9:53 PM,27.0,8.1,45,30.24,10.0,East,4.6,-,N/A,,Overcast,90,2013-01-25 03:53:00
10:53 PM,28.0,9.0,45,30.22,10.0,ESE,5.8,-,N/A,,Overcast,120,2013-01-25 04:53:00
11:53 PM,28.0,9.0,45,30.24,10.0,Calm,Calm,-,N/A,,Overcast,0,2013-01-25 05:53:00